Location: Ariel
(45.9570°N, 122.5700°W)
Time: 20:56:29
(UTC-07:00)

A-11 Canister half - Pass Details

Date: 31 August 2019
Orbit: 1514 x 1686 km, 47.2° (Epoch: 21 October)

Event Time Altitude Azimuth Distance (km) Brightness Sun altitude
Rises 23:44:39 0° 292° (WNW) 4,766 12.2 -32.4°
Reaches altitude 10° 23:48:10 10° 282° (WNW) 3,804 11.4 -32.7°
Enters shadow 23:55:53 30° 229° (SW) 2,614 10.0 -33.2°
